Santa Ana, CA

10:49 AM PST on February 10, 2016 (GMT -0800)
John Wayne-Orange County

Weather History for KSNA - February, 2014

Change the Weather History Date:

Wednesday, February 12, 2014

  Actual Average Record
Temperature  
Mean Temperature 64 °F 57 °F  
Max Temperature 76 °F 66 °F 90 °F (2015)
Min Temperature 51 °F 48 °F 38 °F (1999)
Degree Days  
Heating Degree Days 1 8  
Month to date heating degree days 70 96  
Since 1 July heating degree days 452 788  
Cooling Degree Days 0 0  
Month to date cooling degree days 0 0  
Year to date cooling degree days 27 5  
Growing Degree Days 13 (Base 50)    
Moisture  
Dew Point 50 °F    
Average Humidity 68    
Maximum Humidity 100    
Minimum Humidity 36    
Precipitation  
Precipitation 0.00 in 0.12 in 2.11 in (2001)
Month to date precipitation 0.18 0.95  
Year to date precipitation 0.20 3.86  
Since 1 July precipitation 1.25  
Snow  
Snow 0.00 in - - ()
Month to date snowfall 0.0  
Year to date snowfall 0.0  
Since 1 July snowfall 0.0  
Snow Depth 0.00 in    
Sea Level Pressure  
Sea Level Pressure 30.08 in    
Wind  
Wind Speed 2 mph (SW)    
Max Wind Speed 9 mph    
Max Gust Speed 14 mph    
Visibility 5 miles    
Events Fog    
T = Trace of Precipitation, MM = Missing Value Source: NWS Daily Summary

Daily Weather History Graph

Daily Weather History Graph

Search for Another Location

Airport or City:

Trip Planner

Search our weather history database for the weather conditions in past years. The results will help you decide how hot, cold, wet, or windy it might be!

Date:

Astronomy

Feb. 12, 2014 Rise Set
Actual Time 6:38 AM PST 5:33 PM PST
Civil Twilight 6:13 AM PST 5:58 PM PST
Nautical Twilight 5:43 AM PST 6:28 PM PST
Astronomical Twilight 5:14 AM PST 6:57 PM PST
Moon 3:53 PM PST (2/12) 4:55 AM PST (2/12)
Length of Visible Light 11h 45m
Length of Day
10h 54m
Waxing Gibbous, 96% of the Moon is Illuminated
Feb 12
Waxing Gibbous
Feb 14
Full
Feb 22
Last Quarter
Mar 1
New
Mar 8
First Quarter

Hourly Weather History & Observations

Time (PST) Temp. Dew Point Humidity Pressure Visibility Wind Dir Wind Speed Gust Speed Precip Events Conditions
12:12 AM 55.4 °F 51.8 °F 88% 30.09 in 0.2 mi Calm Calm - N/A Fog Fog
12:17 AM 53.6 °F 51.8 °F 94% 30.08 in 1.0 mi Calm Calm - N/A   Mist
12:29 AM 53.6 °F 51.8 °F 94% 30.08 in 0.5 mi Calm Calm - N/A Fog Fog
12:34 AM 53.6 °F 51.8 °F 94% 30.08 in 1.2 mi Calm Calm - N/A   Scattered Clouds
12:42 AM 53.6 °F 51.8 °F 94% 30.08 in 2.0 mi Calm Calm - N/A   Partly Cloudy
12:53 AM 54.0 °F 51.1 °F 90% 30.09 in 3.0 mi Calm Calm - N/A   Partly Cloudy
1:18 AM 53.6 °F 51.8 °F 94% 30.10 in 1.5 mi Calm Calm - N/A   Partly Cloudy
1:20 AM 53.6 °F 51.8 °F 94% 30.10 in 0.8 mi NNE 3.5 mph - N/A   Mist
1:30 AM 53.6 °F 51.8 °F 94% 30.10 in 0.2 mi Calm Calm - N/A Fog Fog
1:53 AM 53.1 °F 51.1 °F 93% 30.10 in 0.2 mi Calm Calm - N/A Fog Fog
2:53 AM 52.0 °F 51.1 °F 97% 30.10 in 0.2 mi Calm Calm - N/A Fog Fog
3:44 AM 53.6 °F 51.8 °F 94% 30.09 in 1.0 mi Calm Calm - N/A   Mist
3:53 AM 53.1 °F 50.0 °F 89% 30.10 in 2.5 mi Calm Calm - N/A   Scattered Clouds
4:03 AM 51.8 °F 50.0 °F 94% 30.10 in 1.2 mi Calm Calm - 0.01 in   Partly Cloudy
4:10 AM 51.8 °F 50.0 °F 94% 30.09 in 3.0 mi East 3.5 mph - 0.01 in   Clear
4:53 AM 52.0 °F 48.9 °F 89% 30.09 in 5.0 mi Calm Calm - 0.01 in   Clear
5:53 AM 52.0 °F 48.0 °F 86% 30.09 in 7.0 mi Calm Calm - N/A   Clear
6:53 AM 52.0 °F 48.0 °F 86% 30.10 in 5.0 mi Calm Calm - N/A   Scattered Clouds
7:53 AM 55.9 °F 48.9 °F 77% 30.13 in 7.0 mi Calm Calm - N/A   Scattered Clouds
8:53 AM 60.1 °F 51.1 °F 72% 30.14 in 6.0 mi Calm Calm - N/A   Haze
9:53 AM 66.9 °F 51.1 °F 57% 30.14 in 7.0 mi SSW 6.9 mph - N/A   Partly Cloudy
10:53 AM 71.1 °F 50.0 °F 47% 30.13 in 7.0 mi Calm Calm - N/A   Partly Cloudy
11:53 AM 75.0 °F 48.0 °F 38% 30.10 in 6.0 mi Variable 4.6 mph - N/A   Haze
12:53 PM 75.0 °F 46.0 °F 36% 30.08 in 7.0 mi WSW 5.8 mph - N/A   Mostly Cloudy
1:53 PM 73.9 °F 50.0 °F 43% 30.06 in 10.0 mi WSW 8.1 mph - N/A   Mostly Cloudy
2:53 PM 73.0 °F 48.0 °F 41% 30.05 in 10.0 mi SW 4.6 mph - N/A   Mostly Cloudy
3:53 PM 72.0 °F 46.9 °F 41% 30.04 in 10.0 mi West 4.6 mph - N/A   Scattered Clouds
4:53 PM 71.1 °F 48.9 °F 45% 30.04 in 10.0 mi SSW 5.8 mph - N/A   Partly Cloudy
5:53 PM 69.1 °F 50.0 °F 51% 30.04 in 10.0 mi WSW 3.5 mph - N/A   Partly Cloudy
6:53 PM 66.9 °F 51.1 °F 57% 30.05 in 10.0 mi Calm Calm - N/A   Clear
7:53 PM 64.9 °F 50.0 °F 58% 30.05 in 9.0 mi Calm Calm - N/A   Partly Cloudy
8:53 PM 63.0 °F 48.9 °F 60% 30.06 in 9.0 mi Calm Calm - N/A   Partly Cloudy
9:53 PM 61.0 °F 48.9 °F 64% 30.07 in 10.0 mi Calm Calm - N/A   Clear
10:53 PM 60.1 °F 48.9 °F 67% 30.06 in 10.0 mi Calm Calm - N/A   Clear
11:53 PM 57.9 °F 48.0 °F 70% 30.06 in 10.0 mi Calm Calm - N/A   Clear